This is the latest recevied weather packets stored in our database for station/object WB0OCV. If no packets are shown the sender has not sent any weather packets the latest 10 day(s).
| Time | Temp. | Humidity | Pressure | Rain* | Wind** | Luminosity | Snow |
|---|---|---|---|---|---|---|---|
| 1777670862 | 14.44° C | 50% | 1011.6 hPa | 0 mm | - | 239 W/m² | - |
| 1777670558 | 14.44° C | 51% | 1011.6 hPa | 0 mm | - | 271 W/m² | - |
| 1777670256 | 14.44° C | 53% | 1011.6 hPa | 0 mm | - | 293 W/m² | - |
| 1777669953 | 14.44° C | 52% | 1011.6 hPa | 0 mm | - | 310 W/m² | - |
| 1777669650 | 14.44° C | 52% | 1011.7 hPa | 0 mm | - | 327 W/m² | - |
| 1777669346 | 14.44° C | 52% | 1011.6 hPa | 0 mm | - | 344 W/m² | - |
| 1777669043 | 14.44° C | 54% | 1011.5 hPa | 0 mm | - | 361 W/m² | - |
| 1777668740 | 14.44° C | 55% | 1011.6 hPa | 0 mm | - | 377 W/m² | - |
| 1777668437 | 14.44° C | 53% | 1011.6 hPa | 0 mm | - | 393 W/m² | - |
| 1777668134 | 15° C | 52% | 1011.6 hPa | 0 mm | - | 410 W/m² | - |
| 1777667829 | 15° C | 51% | 1011.6 hPa | 0 mm | - | 427 W/m² | - |
| 1777667527 | 15° C | 52% | 1011.5 hPa | 0 mm | - | 445 W/m² | - |
| 1777667224 | 15° C | 52% | 1011.5 hPa | 0 mm | - | 455 W/m² | - |
| 1777666921 | 15° C | 52% | 1011.6 hPa | 0 mm | - | 471 W/m² | - |
| 1777666618 | 15° C | 54% | 1011.5 hPa | 0 mm | - | 488 W/m² | - |
| 1777666314 | 15.56° C | 55% | 1011.6 hPa | 0 mm | - | 502 W/m² | - |
| 1777666011 | 15.56° C | 51% | 1011.6 hPa | 0 mm | - | 517 W/m² | - |
| 1777665709 | 15.56° C | 53% | 1011.6 hPa | 0 mm | - | 532 W/m² | - |
| 1777665406 | 15.56° C | 51% | 1011.4 hPa | 0 mm | - | 546 W/m² | - |
| 1777665101 | 16.67° C | 50% | 1011.5 hPa | 0 mm | - | 560 W/m² | - |
| 1777664797 | 16.67° C | 57% | 1011.5 hPa | 0 mm | - | 574 W/m² | - |
| 1777664493 | 16.11° C | 52% | 1011.5 hPa | 0 mm | - | 587 W/m² | - |
| 1777664191 | 16.11° C | 51% | 1011.6 hPa | 0 mm | - | 597 W/m² | - |
| 1777663889 | 15.56° C | 52% | 1011.3 hPa | 0 mm | - | 612 W/m² | - |
| 1777663586 | 16.67° C | 50% | 1011.5 hPa | 0 mm | - | 622 W/m² | - |
* Rain latest hour (hover to see other rain measurements)
** Current wind speed in m/s (hover to see current wind gust speed)